User: anonymous   Login
Location: Unspecified
(0.0000°N, 0.0000°E)
Time: 09:22:46
(UTC+00:00)
Language:

CANX 3A (UNIBRITE) - Orbit

View from above orbital plane
View from above orbital plane
View from above satellite
View from above satellite

Ground track
Ground track

The orbit data is extracted from the following two-line orbital elements,

1 39092U 13009G   17083.38184814 +.00000053 +00000-0 +34073-4 0  9991
2 39092 098.5590 288.6926 0009182 185.9996 174.1081 14.34892877213314
Epoch (UTC): 24 March 2017 09:09:51
Eccentricity: 0.0009182
inclination: 98.5590°
perigee height: 769 km
apogee height: 782 km
right ascension of ascending node: 288.6926°
argument of perigee: 185.9996°
revolutions per day: 14.34892877
mean anomaly at epoch: 174.1081°
orbit number at epoch: 21331

The dashed part of the orbit path shows where the satellite is in the earth's shadow,  

DLR